Starlink 11233

operational
NORAD ID: 61061 Int'l Des: 2024-164 Owner: SPXS Country: US Constellation: starlink
LEOCIRCULAR

Starlink 11233について

説明を読み込み中...

リアルタイム位置

3D地球を読み込み中...

次回通過

高度履歴

Altitude vs Time

uPlot chart will show altitude changes over time

軌道要素

1 61061U 24164M 25305.05554208 .00001754 00000-0 19314-4 0 9994
2 61061 53.1601 225.5163 0001298 92.2524 267.8643 15.69732882 65211
Epoch: Nov 1, 2025 • Age: 31 hours

現在のステータス

高度 364.6 km
速度 7.70 km/s
衛星直下点 50.06°N, 169.22°E
打ち上げ日 Sep 13, 2024
運用期間 1.1 years
タイプ internet

技術仕様

分類 Payload
質量 960.00 kg
乾燥質量 910.00 kg
総質量 960.00 kg
長さ 0.30 m
直径 4.10 m
スパン 29.00 m
形状 Box + pan
製造者 SPXS
バスタイプ Starlink V2MD
フェーズステータス In Orbit
所有者/国 SPXS/US

大規模コンステレーション

Loading constellations...